DW8016 Weather Reports


time (UTC)temp
F
wind
direction
speed
knots
gust
knots
rain 1hr
in
rain 24hr
in
rain mn
in
humidity
%
barometer
mb
20260507094728 55 343 0.0 0.0 0.00 0.35 0.04 89 1010.6
20260507093714 55 343 0.0 0.0 0.00 0.35 0.04 89 1010.6
20260507092738 55 343 0.0 0.0 0.00 0.35 0.04 88 1010.5
20260507091742 55 343 0.0 0.0 0.00 0.35 0.04 89 1010.1
20260507090747 55 343 0.0 0.0 0.00 0.35 0.04 89 1010.3
20260507085714 55 343 0.0 0.0 0.00 0.35 0.04 88 1010.5
20260507084700 56 343 0.0 0.0 0.00 0.35 0.04 89 1010.2
20260507083706 56 343 0.0 0.0 0.00 0.35 0.04 90 1010.2
20260507080416 56 343 0.0 0.0 0.00 0.35 0.04 91 1009.6
20260507075437 56 343 0.0 0.0 0.00 0.35 0.04 91 1009.6
20260507074427 56 343 0.0 0.0 0.00 0.35 0.04 91 1009.5
20260507072333 56 343 0.0 0.0 0.00 0.35 0.04 90 1009.3
20260507071306 57 343 0.0 0.0 0.00 0.35 0.04 91 1009.4
20260507065146 57 343 0.0 0.0 0.00 0.35 0.04 90 1009.3
20260507064154 57 343 0.0 0.0 0.00 0.35 0.04 90 1009.4
20260507063122 57 343 0.0 0.0 0.00 0.35 0.04 91 1009.5
20260507062054 57 343 0.0 0.0 0.00 0.35 0.04 90 1009.3
20260507061032 57 343 0.0 0.0 0.00 0.35 0.04 90 1009.3
20260507060044 57 343 0.0 0.0 0.00 0.35 0.04 90 1009.2
20260507055106 57 343 0.0 0.0 0.00 0.35 0.04 89 1009.4
20260507054112 57 342 0.0 0.0 0.00 0.35 0.04 89 1009.4
20260507053055 58 342 0.0 0.0 0.00 0.34 0.03 89 1009.5
20260507052037 58 342 0.0 0.0 0.00 0.34 0.03 88 1009.2
20260507045914 59 334 0.0 0.0 0.00 0.34 0.03 85 1009.5
20260507044927 60 334 0.0 0.9 0.00 0.34 0.03 85 1009.7
20260507043940 61 343 0.0 3.5 0.08 0.34 0.03 83 1009.5
20260507042916 62 304 0.0 0.0 0.13 0.33 0.02 83 1009.6
20260507041929 63 304 0.0 0.0 0.00 0.31 0.00 80 1009.6
20260507040903 63 304 0.0 0.0 0.00 0.31 0.00 78 1009.3
20260507035838 63 304 0.0 0.0 0.00 0.31 0.31 77 1009.3
20260507033629 64 304 0.0 3.5 0.00 0.31 0.31 73 1009.0
20260507030421 65 329 0.0 0.9 0.00 0.31 0.31 73 1008.5
20260507025353 65 16 0.0 5.2 0.00 0.31 0.31 72 1008.4
20260507023221 66 355 0.9 4.3 0.00 0.31 0.31 74 1008.5
20260507022235 66 350 0.0 4.3 0.00 0.31 0.31 76 1008.2
20260507021216 67 351 0.0 0.0 0.00 0.31 0.31 78 1008.2
20260507020239 67 351 0.9 4.3 0.00 0.31 0.31 76 1008.0
20260507014201 68 0 0.0 3.5 0.00 0.31 0.31 79 1007.8
20260507013159 69 262 0.0 0.0 0.00 0.31 0.31 81 1008.0
20260507012131 69 262 0.0 0.0 0.00 0.31 0.31 81 1008.1
20260507011102 69 262 0.0 0.0 0.00 0.31 0.31 81 1008.0
20260507003931 69 262 0.0 0.0 0.00 0.31 0.31 79 1007.7
20260507002923 69 262 0.0 0.0 0.00 0.31 0.31 78 1007.7
20260507001919 70 262 0.0 0.0 0.00 0.31 0.31 78 1007.5
20260507000921 70 262 0.0 0.0 0.00 0.31 0.31 77 1007.5
20260506234725 70 262 0.0 0.0 0.00 0.31 0.31 76 1007.4
20260506232618 71 262 0.0 2.6 0.00 0.31 0.31 74 1007.1
20260506231615 71 240 0.0 2.6 0.00 0.31 0.31 75 1007.0
20260506230553 71 240 0.0 0.9 0.00 0.31 0.31 74 1007.0
20260506225557 71 190 0.0 3.5 0.00 0.31 0.31 74 1006.9
20260506224534 71 277 0.0 0.9 0.00 0.31 0.31 74 1006.8
20260506223554 71 222 0.9 6.1 0.00 0.31 0.31 73 1006.8
20260506222601 71 212 0.9 9.6 0.00 0.31 0.31 73 1006.8
20260506221554 72 207 3.5 9.6 0.00 0.31 0.31 72 1006.6
20260506220609 72 246 1.7 7.8 0.00 0.31 0.31 72 1006.6
20260506215548 72 192 2.6 9.6 0.00 0.31 0.31 72 1006.7
20260506214551 72 245 2.6 11.3 0.00 0.31 0.31 73 1006.7
20260506213546 72 267 3.5 11.3 0.00 0.31 0.31 73 1006.7
20260506212600 72 230 2.6 10.4 0.00 0.31 0.31 72 1006.7
20260506211528 73 271 3.5 10.4 0.00 0.31 0.31 71 1006.6
20260506210516 72 265 3.5 7.8 0.00 0.31 0.31 71 1006.6
20260506205450 72 167 3.5 10.4 0.00 0.31 0.31 71 1006.0
20260506204458 72 241 2.6 10.4 0.00 0.31 0.31 71 1006.3
20260506203447 72 213 2.6 9.6 0.00 0.31 0.31 71 1006.1
20260506202433 72 257 4.3 9.6 0.00 0.31 0.31 72 1006.2
20260506201402 72 196 3.5 8.7 0.00 0.31 0.31 71 1006.3
20260506200425 71 286 4.3 11.3 0.00 0.31 0.31 73 1006.4
20260506195437 71 124 4.3 11.3 0.00 0.31 0.31 72 1006.4
20260506194415 71 196 4.3 11.3 0.00 0.31 0.31 72 1006.4
20260506193355 71 209 5.2 14.8 0.00 0.31 0.31 73 1006.5
20260506192416 71 207 4.3 14.8 0.00 0.31 0.31 74 1006.4
20260506190312 70 259 4.3 12.2 0.00 0.31 0.31 75 1006.7
20260506185250 69 222 2.6 12.2 0.00 0.31 0.31 75 1006.8
20260506184216 69 203 2.6 12.2 0.00 0.31 0.31 76 1006.8
20260506183213 69 238 2.6 10.4 0.00 0.31 0.31 77 1006.9
20260506182224 69 197 4.3 11.3 0.00 0.31 0.31 75 1007.0
20260506180137 69 162 3.5 9.6 0.00 0.31 0.31 76 1007.3
20260506175103 69 240 3.5 13.0 0.00 0.31 0.31 78 1007.2
20260506171843 67 277 3.5 15.6 0.00 0.31 0.31 80 1007.4
20260506165658 66 182 4.3 14.8 0.00 0.31 0.31 81 1007.5
20260506164707 66 212 4.3 13.0 0.00 0.31 0.31 83 1007.5
20260506163658 65 190 4.3 13.0 0.00 0.31 0.31 85 1007.5
20260506162652 65 271 4.3 15.6 0.00 0.31 0.31 87 1007.7
20260506161632 64 229 5.2 15.6 0.00 0.31 0.31 89 1007.6
20260506160647 64 172 4.3 17.4 0.00 0.31 0.31 90 1007.8
20260506155705 63 246 5.2 20.0 0.00 0.31 0.31 90 1007.7
20260506154652 63 161 5.2 20.0 0.00 0.31 0.31 90 1007.7
20260506153641 62 243 4.3 12.2 0.04 0.31 0.31 91 1008.0
20260506152702 62 153 4.3 14.8 0.04 0.31 0.31 91 1008.1
20260506151651 62 228 4.3 14.8 0.09 0.29 0.30 91 1008.0
20260506145530 62 175 3.5 8.7 0.04 0.26 0.26 91 1008.4
20260506144815 62 177 3.5 8.7 0.04 0.24 0.25 91 1008.6
20260506142112 61 221 2.6 7.0 0.08 0.23 0.23 91 1008.8
20260506141101 61 193 2.6 9.6 0.12 0.21 0.21 90 1008.6
20260506134854 62 269 1.7 9.6 0.17 0.14 0.15 89 1008.8
20260506133903 62 189 2.6 8.7 0.19 0.12 0.13 88 1008.9
20260506132921 62 227 2.6 7.8 0.21 0.09 0.09 87 1009.0
20260506131940 63 203 2.6 7.8 0.31 0.04 0.06 86 1009.1
20260506131000 63 267 2.6 7.8 0.00 0.02 0.03 85 1009.2
20260506130021 63 172 1.7 7.0 0.00 0.02 0.02 85 1008.7
20260506123836 63 172 1.7 7.8 0.04 0.02 0.02 84 1008.3
20260506122847 64 196 2.6 9.6 0.10 0.02 0.02 83 1008.4
20260506121907 64 192 3.5 9.6 0.00 0.01 0.01 81 1008.6
20260506120932 64 180 1.7 7.0 0.00 0.00 0.00 79 1008.8
20260506115944 65 215 1.7 8.7 0.00 0.00 0.00 78 1009.0
20260506114910 65 220 1.7 8.7 0.00 0.00 0.00 76 1008.9
20260506111624 66 180 3.5 10.4 0.00 0.00 0.00 72 1008.3
20260506110602 66 176 3.5 8.7 0.00 0.00 0.00 71 1008.2
20260506105611 66 153 3.5 12.2 0.00 0.00 0.00 71 1008.1
20260506102341 67 216 3.5 12.2 0.00 0.00 0.00 68 1008.0
20260506101322 67 216 4.3 11.3 0.00 0.00 0.00 68 1008.0
20260506100308 67 247 2.6 9.6 0.00 0.00 0.00 67 1007.9
20260506095234 67 192 2.6 9.6 0.00 0.00 0.00 67 1008.0